User: anonymous   Login
Location: Bangkok
(13.7500°N, 100.5170°E)
Time: 03:02:15
(UTC+07:00)
Language:

ERBS - Orbit

View from above orbital plane
View from above orbital plane
View from above satellite
View from above satellite

Ground track
Ground track

The orbit data is extracted from the following two-line orbital elements,

1 15354U 84108B   16147.87988804 +.00003320 +00000-0 +89196-4 0  9995
2 15354 057.0098 358.0290 0017518 090.5713 269.7348 15.40728169738339
Epoch (UTC): 26 May 2016 21:07:02
Eccentricity: 0.0017518
inclination: 57.0098°
perigee height: 432 km
apogee height: 456 km
right ascension of ascending node: 358.0290°
argument of perigee: 90.5713°
revolutions per day: 15.40728169
mean anomaly at epoch: 269.7348°
orbit number at epoch: 73833

The dashed part of the orbit path shows where the satellite is in the earth's shadow,  

DLR